User: anonymous   Login
Location: Lawrence
(38.9720°N, 95.2350°W)
Time: 22:36:15
(UTC-06:00)
Language:

JAS-1B - Orbit

View from above orbital plane
View from above orbital plane
View from above satellite
View from above satellite

Ground track
Ground track

The orbit data is extracted from the following two-line orbital elements,

1 20480U 90013C   16043.84233977 -.00000046  00000-0 -38477-4 0  9999
2 20480  99.0352 263.8528 0540898  62.4712 359.6532 12.83409438218820
Epoch (UTC): 12 February 2016 20:12:58
Eccentricity: 0.0540898
inclination: 99.0352°
perigee height: 911 km
apogee height: 1744 km
right ascension of ascending node: 263.8528°
argument of perigee: 62.4712°
revolutions per day: 12.83409438
mean anomaly at epoch: 359.6532°
orbit number at epoch: 21882

The dashed part of the orbit path shows where the satellite is in the earth's shadow,  

DLR